Content
SEND FEEDBACK

Daily
Averages
Monthly
Summary
United States of America

LORETTO, NEBRASKA


Home > North America > United States > Nebraska
Elevation: 1850 feet     Latitude: 41 46N     Longitude: 098 05W

WEATHER
 
SELECT A DAY
Number of Records: 250,124;   Date Range: 8/16/04 - 10/18/14
 
SHARE

PRINT THIS DATA

[ ← Previous Day ]
WEATHER ALMANAC - JANUARY 23, 2013
[ Next Day → ]
[ °C ]   °F
Weather ElementAverageHighLow
Temperature19.9 °F29.7 °F (1:35 pm)9.9 °F (11:55 pm)
Dewpoint10.8 °F16.5 °F (9:35 am)2.3 °F (10:35 pm)
Humidity68.8 %86 % (4:35 am)49 % (1:55 pm)
Barometer30.26 in30.45 in (10:15 pm)30.11 in (1:35 am)
Wind Speed8.6 mph18.4 mph (2:35 pm)
Wind Gust24.2 mph (12:55 pm)
Weather ElementAverage
Visibility10 mi
Wind DirectionS (174.4 °)

Weather ElementTotal
Precipitation---
Heating Degree Days45.2 (Base 65)
Averaged from 70 records on January 23, 2013
WEATHER CONDITIONS BREAKOUT
WIND DIRECTION BREAKOUT
WEATHER BY HOUR - JANUARY 23, 2013
[ °C ]   °F
Local TimeTemperatureDewpointHumidityBarometerVisibilityWind DirectionWind SpeedGust SpeedPrecipitationEventsConditions
12:35 AM18.3 °F12.7 °F79 %30.13 in10.0 miSouth (190°)3.5 mphClear
12:55 AM17.1 °F12.0 °F81 %30.13 in10.0 miSW (220°)4.6 mphClear
1:15 AM18.7 °F13.3 °F79 %30.12 in10.0 miCalmClear
1:35 AM18.7 °F13.5 °F80 %30.11 in10.0 miWSW (240°)5.8 mphClear
1:55 AM20.3 °F14.0 °F77 %30.11 in10.0 miWSW (240°)3.5 mphClear
2:15 AM21.0 °F14.4 °F75 %30.11 in10.0 miCalmClear
2:35 AM19.8 °F13.3 °F76 %30.11 in10.0 miCalmClear
2:55 AM20.1 °F14.5 °F79 %30.12 in10.0 miNNW (330°)4.6 mphClear
3:15 AM19.0 °F13.1 °F78 %30.12 in10.0 miNW (320°)4.6 mphClear
3:35 AM18.7 °F13.5 °F80 %30.12 in10.0 miCalmClear
3:55 AM14.7 °F10.9 °F85 %30.11 in10.0 miCalmClear
4:15 AM16.0 °F12.0 °F84 %30.11 in10.0 miCalmClear
4:35 AM14.9 °F11.5 °F86 %30.11 in10.0 miCalmClear
4:55 AM14.0 °F10.0 °F84 %30.11 in10.0 miCalmClear
5:15 AM15.4 °F11.8 °F86 %30.11 in10.0 miNNW (340°)4.6 mphClear
5:35 AM16.5 °F12.2 °F83 %30.12 in10.0 miNNW (330°)3.5 mphClear
5:55 AM11.3 °F7.2 °F83 %30.13 in10.0 miNNW (330°)4.6 mphClear
6:15 AM19.9 °F15.3 °F82 %30.13 in10.0 miNNW (340°)6.9 mphClear
6:35 AM16.5 °F12.0 °F82 %30.13 in10.0 miNW (310°)4.6 mphClear
6:55 AM14.9 °F10.4 °F82 %30.15 in10.0 miCalmClear
7:15 AM13.1 °F9.3 °F85 %30.15 in10.0 miNW (310°)3.5 mphClear
7:35 AM14.0 °F9.9 °F84 %30.15 in10.0 miWNW (300°)4.6 mphClear
7:55 AM14.7 °F10.9 °F85 %30.17 in10.0 miNW (320°)4.6 mphClear
8:15 AM16.2 °F12.4 °F85 %30.17 in10.0 miNW (320°)4.6 mphClear
8:35 AM18.3 °F14.0 °F83 %30.18 in10.0 miNW (320°)4.6 mphClear
8:55 AM21.6 °F15.6 °F78 %30.19 in10.0 miNorth (350°)9.2 mphClear
9:15 AM21.7 °F15.8 °F78 %30.20 in10.0 miNorth (350°)4.6 mphClear
9:35 AM23.0 °F16.5 °F76 %30.21 in10.0 miNorth (350°)10.4 mphClear
9:55 AM23.7 °F16.5 °F74 %30.22 in10.0 miNorth (350°)9.2 mphClear
10:15 AM24.6 °F16.5 °F71 %30.23 in10.0 miNorth (350°)15.0 mphClear
10:35 AM25.7 °F16.3 °F68 %30.24 in10.0 miNorth (360°)13.8 mphClear
10:55 AM26.4 °F16.3 °F66 %30.25 in10.0 miNorth (360°)12.7 mphClear
11:15 AM27.5 °F16.0 °F62 %30.25 in10.0 miNorth (350°)15.0 mph20.7 mphClear
11:35 AM28.2 °F15.8 °F60 %30.25 in10.0 miNorth (350°)13.8 mph20.7 mphClear
11:55 AM29.1 °F15.6 °F57 %30.25 in10.0 miNorth (350°)13.8 mph20.7 mphClear
12:15 PM29.1 °F15.3 °F56 %30.26 in10.0 miNorth (350°)15.0 mph23.0 mphClear
12:35 PM29.5 °F14.9 °F55 %30.26 in10.0 miNorth (350°)15.0 mph20.7 mphClear
12:55 PM28.9 °F13.8 °F53 %30.26 in10.0 miNorth (350°)13.8 mph24.2 mphClear
1:15 PM29.3 °F13.5 °F52 %30.26 in10.0 miNorth (350°)17.3 mph20.7 mphClear
1:35 PM29.7 °F13.1 °F50 %30.26 in10.0 miNorth (360°)13.8 mph19.6 mphClear
1:55 PM29.7 °F12.7 °F49 %30.26 in10.0 miNorth (360°)13.8 mph19.6 mphClear
2:15 PM29.1 °F11.8 °F49 %30.26 in10.0 miNorth (10°)17.3 mph23.0 mphClear
2:35 PM28.8 °F11.5 °F49 %30.26 in10.0 miNorth (360°)18.4 mph21.9 mphClear
2:55 PM28.0 °F11.5 °F50 %30.28 in10.0 miNorth (10°)12.7 mph17.3 mphClear
3:15 PM27.9 °F11.5 °F50 %30.29 in10.0 miNNW (340°)16.1 mphClear
3:35 PM26.6 °F10.8 °F51 %30.30 in10.0 miNorth (10°)15.0 mph18.4 mphClear
3:55 PM25.5 °F9.5 °F51 %30.31 in10.0 miNorth (10°)15.0 mph21.9 mphClear
4:15 PM25.2 °F9.9 °F52 %30.32 in10.0 miNorth (10°)10.4 mphClear
4:35 PM24.8 °F9.3 °F52 %30.32 in10.0 miNorth (10°)16.1 mphClear
4:55 PM23.0 °F9.0 °F55 %30.33 in10.0 miNorth (10°)11.5 mph16.1 mphClear
5:15 PM21.9 °F9.1 °F58 %30.35 in10.0 miNorth (360°)11.5 mphClear
5:35 PM20.7 °F8.6 °F60 %30.36 in10.0 miNorth (10°)10.4 mphClear
5:55 PM19.8 °F8.6 °F62 %30.36 in10.0 miNorth (10°)12.7 mphClear
6:15 PM19.4 °F8.6 °F63 %30.37 in10.0 miNorth (10°)9.2 mph16.1 mphClear
6:35 PM18.5 °F8.2 °F64 %30.38 in10.0 miNNE (20°)8.1 mphClear
6:55 PM18.0 °F7.7 °F64 %30.38 in10.0 miNNE (20°)10.4 mphClear
7:15 PM17.2 °F7.7 °F66 %30.39 in10.0 miNNE (20°)11.5 mphClear
7:35 PM16.5 °F7.3 °F67 %30.40 in10.0 miNorth (10°)12.7 mphClear
7:55 PM15.8 °F5.9 °F65 %30.40 in10.0 miNNE (20°)10.4 mphClear
8:15 PM14.9 °F5.4 °F66 %30.41 in10.0 miNNE (20°)10.4 mphClear
8:35 PM14.5 °F5.5 °F68 %30.41 in10.0 miNorth (10°)8.1 mphClear
8:55 PM14.0 °F5.0 °F67 %30.42 in10.0 miNorth (360°)5.8 mphClear
9:15 PM13.8 °F4.5 °F66 %30.44 in10.0 miNorth (10°)8.1 mphClear
9:35 PM13.1 °F2.5 °F63 %30.44 in10.0 miNNE (20°)10.4 mphClear
9:55 PM12.2 °F3.2 °F67 %30.44 in10.0 miNorth (10°)8.1 mphClear
10:15 PM12.0 °F3.0 °F67 %30.45 in10.0 miNNE (20°)8.1 mphClear
10:35 PM11.3 °F2.3 °F67 %30.45 in10.0 miNNE (30°)8.1 mphClear
10:55 PM11.1 °F2.3 °F68 %30.45 in10.0 miNNE (20°)8.1 mphClear
11:15 PM10.4 °F2.7 °F71 %30.44 in10.0 miNNE (30°)9.2 mphClear
11:55 PM9.9 °F2.7 °F73 %30.45 in10.0 miNNE (30°)8.1 mphClear
Hourly data recorded from KBVN, located miles away from Loretto, Nebraska







STORIES FROM OUR PARTNERS